TimeEST,TemperatureF,Dew PointF,Humidity,Sea Level PressureIn,VisibilityMPH,Wind Direction,Wind SpeedMPH,Gust SpeedMPH,PrecipitationIn,Events,Conditions,WindDirDegrees,DateUTC
12:06 AM,62.6,62.6,100,30.31,1.8,East,4.6,-,N/A,,Overcast,100,2013-01-11 05:06:00
12:10 AM,62.6,62.6,100,30.31,1.5,ESE,4.6,-,N/A,,Overcast,110,2013-01-11 05:10:00
12:17 AM,60.8,60.8,100,30.31,1.2,ESE,5.8,-,N/A,,Overcast,110,2013-01-11 05:17:00
12:22 AM,60.8,60.8,100,30.31,1.0,ESE,5.8,-,N/A,,Mist,110,2013-01-11 05:22:00
12:26 AM,60.8,60.8,100,30.31,1.0,East,5.8,-,N/A,,Mist,100,2013-01-11 05:26:00
12:30 AM,60.8,60.8,100,30.31,0.8,East,5.8,-,N/A,,Mist,100,2013-01-11 05:30:00
12:55 AM,61.2,61.2,100,30.30,0.8,ESE,5.8,-,N/A,,Mist,110,2013-01-11 05:55:00
1:43 AM,60.8,60.8,100,30.29,0.5,ESE,3.5,-,N/A,Fog,Fog,110,2013-01-11 06:43:00
1:55 AM,60.6,60.6,100,30.29,0.5,East,5.8,-,N/A,Fog,Fog,100,2013-01-11 06:55:00
2:03 AM,60.8,60.8,100,30.29,0.8,East,3.5,-,N/A,,Mist,90,2013-01-11 07:03:00
2:32 AM,60.8,60.8,100,30.29,0.8,ESE,5.8,-,N/A,,Mist,110,2013-01-11 07:32:00
2:34 AM,60.8,60.8,100,30.29,1.0,East,4.6,-,N/A,,Mist,100,2013-01-11 07:34:00
2:37 AM,60.8,60.8,100,30.28,1.2,ESE,5.8,-,N/A,,Overcast,110,2013-01-11 07:37:00
2:39 AM,60.8,60.8,100,30.28,1.5,East,5.8,-,N/A,,Overcast,100,2013-01-11 07:39:00
2:40 AM,60.8,60.8,100,30.28,1.8,East,5.8,-,N/A,,Overcast,100,2013-01-11 07:40:00
2:42 AM,60.8,60.8,100,30.28,2.0,ESE,5.8,-,N/A,,Overcast,110,2013-01-11 07:42:00
2:45 AM,60.8,60.8,100,30.28,3.0,ESE,5.8,-,N/A,,Overcast,110,2013-01-11 07:45:00
2:48 AM,60.8,60.8,100,30.28,4.0,ESE,5.8,-,N/A,,Overcast,110,2013-01-11 07:48:00
2:55 AM,60.3,60.3,100,30.27,6.0,ESE,5.8,-,N/A,,Mostly Cloudy,110,2013-01-11 07:55:00
3:06 AM,60.8,60.8,100,30.27,8.0,ESE,5.8,-,N/A,,Mostly Cloudy,110,2013-01-11 08:06:00
3:16 AM,60.8,60.8,100,30.26,9.0,ESE,5.8,-,N/A,,Partly Cloudy,120,2013-01-11 08:16:00
3:55 AM,59.5,59.5,100,30.25,9.0,ESE,4.6,-,N/A,,Clear,110,2013-01-11 08:55:00
4:31 AM,59.0,59.0,100,30.24,2.5,Calm,Calm,-,N/A,,Clear,0,2013-01-11 09:31:00
4:33 AM,59.0,59.0,100,30.24,2.0,Calm,Calm,-,N/A,,Clear,0,2013-01-11 09:33:00
4:35 AM,59.0,59.0,100,30.24,1.8,Calm,Calm,-,N/A,,Clear,0,2013-01-11 09:35:00
4:36 AM,59.0,59.0,100,30.24,1.5,Calm,Calm,-,N/A,,Clear,0,2013-01-11 09:36:00
4:38 AM,59.0,59.0,100,30.24,1.2,Calm,Calm,-,N/A,,Clear,0,2013-01-11 09:38:00
4:41 AM,59.0,59.0,100,30.24,1.0,Calm,Calm,-,N/A,,Clear,0,2013-01-11 09:41:00
4:44 AM,59.0,59.0,100,30.24,0.8,Calm,Calm,-,N/A,,Clear,0,2013-01-11 09:44:00
4:46 AM,57.2,57.2,100,30.24,0.8,Calm,Calm,-,N/A,,Clear,0,2013-01-11 09:46:00
4:48 AM,57.2,57.2,100,30.24,0.5,Calm,Calm,-,N/A,Fog,Fog,0,2013-01-11 09:48:00
4:55 AM,56.5,56.5,100,30.24,0.5,Calm,Calm,-,N/A,Fog,Fog,0,2013-01-11 09:55:00
5:16 AM,55.4,55.4,100,30.24,0.2,Calm,Calm,-,N/A,Fog,Fog,0,2013-01-11 10:16:00
5:55 AM,56.1,56.1,100,30.24,0.2,Calm,Calm,-,N/A,Fog,Fog,0,2013-01-11 10:55:00
6:24 AM,55.4,55.4,100,30.24,0.8,Calm,Calm,-,N/A,,Clear,0,2013-01-11 11:24:00
6:31 AM,55.4,55.4,100,30.25,0.5,Calm,Calm,-,N/A,Fog,Fog,0,2013-01-11 11:31:00
6:55 AM,54.0,54.0,100,30.24,0.5,Calm,Calm,-,N/A,Fog,Fog,0,2013-01-11 11:55:00
7:29 AM,53.6,53.6,100,30.25,0.2,Calm,Calm,-,N/A,Fog,Fog,0,2013-01-11 12:29:00
7:51 AM,53.6,53.6,100,30.26,0.2,Calm,Calm,-,N/A,Fog,Fog,0,2013-01-11 12:51:00
7:55 AM,54.0,54.0,100,30.26,0.2,Calm,Calm,-,N/A,Fog,Fog,0,2013-01-11 12:55:00
8:04 AM,53.6,53.6,100,30.25,0.8,Calm,Calm,-,N/A,,Clear,0,2013-01-11 13:04:00
8:07 AM,53.6,53.6,100,30.25,0.8,Calm,Calm,-,N/A,,Clear,0,2013-01-11 13:07:00
8:08 AM,55.4,55.4,100,30.25,0.8,Calm,Calm,-,N/A,,Clear,0,2013-01-11 13:08:00
8:10 AM,55.4,55.4,100,30.25,1.0,Calm,Calm,-,N/A,,Clear,0,2013-01-11 13:10:00
8:12 AM,55.4,55.4,100,30.25,1.2,Calm,Calm,-,N/A,,Clear,0,2013-01-11 13:12:00
8:14 AM,55.4,55.4,100,30.25,1.8,Calm,Calm,-,N/A,,Clear,0,2013-01-11 13:14:00
8:15 AM,55.4,55.4,100,30.25,2.0,Calm,Calm,-,N/A,,Clear,0,2013-01-11 13:15:00
8:17 AM,55.4,55.4,100,30.25,3.0,Calm,Calm,-,N/A,,Clear,0,2013-01-11 13:17:00
8:55 AM,60.1,60.1,100,30.26,10.0,Calm,Calm,-,N/A,,Clear,0,2013-01-11 13:55:00
9:55 AM,64.6,64.6,100,30.27,10.0,Calm,Calm,-,N/A,,Clear,0,2013-01-11 14:55:00
10:55 AM,67.8,67.8,100,30.27,10.0,South,3.5,-,N/A,,Clear,190,2013-01-11 15:55:00
11:55 AM,73.9,63.9,71,30.24,10.0,Variable,3.5,-,N/A,,Clear,0,2013-01-11 16:55:00
12:55 PM,77.2,61.0,57,30.22,10.0,Calm,Calm,-,N/A,,Scattered Clouds,0,2013-01-11 17:55:00
1:55 PM,76.5,59.9,56,30.19,10.0,Calm,Calm,-,N/A,,Scattered Clouds,0,2013-01-11 18:55:00
2:55 PM,75.7,60.6,59,30.18,10.0,Calm,Calm,-,N/A,,Mostly Cloudy,0,2013-01-11 19:55:00
3:55 PM,75.7,62.1,62,30.18,10.0,Calm,Calm,-,N/A,,Mostly Cloudy,0,2013-01-11 20:55:00
4:55 PM,73.4,64.9,75,30.17,10.0,Calm,Calm,-,N/A,,Mostly Cloudy,0,2013-01-11 21:55:00
5:55 PM,68.7,64.4,86,30.18,10.0,Calm,Calm,-,N/A,,Clear,0,2013-01-11 22:55:00
6:28 PM,68.0,64.4,88,30.18,6.0,Calm,Calm,-,N/A,,Clear,0,2013-01-11 23:28:00
6:55 PM,65.1,63.5,94,30.19,6.0,ESE,4.6,-,N/A,,Clear,110,2013-01-11 23:55:00
7:55 PM,64.6,64.2,99,30.19,5.0,Calm,Calm,-,N/A,,Mostly Cloudy,0,2013-01-12 00:55:00
8:14 PM,64.4,64.4,100,30.19,5.0,SE,3.5,-,N/A,,Overcast,140,2013-01-12 01:14:00
8:55 PM,64.9,64.9,100,30.20,10.0,SSE,4.6,-,N/A,,Mostly Cloudy,150,2013-01-12 01:55:00
9:55 PM,64.4,64.4,100,30.20,10.0,Calm,Calm,-,N/A,,Clear,0,2013-01-12 02:55:00
10:15 PM,62.6,62.6,100,30.20,2.5,Calm,Calm,-,N/A,,Clear,0,2013-01-12 03:15:00
10:16 PM,62.6,62.6,100,30.20,1.8,Calm,Calm,-,N/A,,Clear,0,2013-01-12 03:16:00
10:17 PM,62.6,62.6,100,30.20,1.2,Calm,Calm,-,N/A,,Clear,0,2013-01-12 03:17:00
10:18 PM,62.6,62.6,100,30.20,1.0,Calm,Calm,-,N/A,,Clear,0,2013-01-12 03:18:00
10:19 PM,62.6,62.6,100,30.20,0.8,Calm,Calm,-,N/A,,Clear,0,2013-01-12 03:19:00
10:21 PM,62.6,62.6,100,30.20,0.5,Calm,Calm,-,N/A,Fog,Fog,0,2013-01-12 03:21:00
10:24 PM,62.6,62.6,100,30.20,0.5,Calm,Calm,-,N/A,Fog,Fog,0,2013-01-12 03:24:00
10:36 PM,62.6,62.6,100,30.19,0.8,SSE,3.5,-,N/A,,Clear,150,2013-01-12 03:36:00
10:37 PM,62.6,62.6,100,30.19,0.8,SE,3.5,-,N/A,,Clear,140,2013-01-12 03:37:00
10:39 PM,62.6,62.6,100,30.19,1.0,SSE,3.5,-,N/A,,Clear,150,2013-01-12 03:39:00
10:40 PM,62.6,62.6,100,30.20,1.0,SSE,3.5,-,N/A,,Clear,150,2013-01-12 03:40:00
10:41 PM,62.6,62.6,100,30.19,1.2,SSE,3.5,-,N/A,,Clear,150,2013-01-12 03:41:00
10:42 PM,62.6,62.6,100,30.19,1.5,SSE,3.5,-,N/A,,Clear,150,2013-01-12 03:42:00
10:43 PM,62.6,62.6,100,30.19,2.0,Calm,Calm,-,N/A,,Clear,0,2013-01-12 03:43:00
10:45 PM,62.6,62.6,100,30.19,3.0,SSE,3.5,-,N/A,,Clear,160,2013-01-12 03:45:00
10:51 PM,62.6,62.6,100,30.19,9.0,Calm,Calm,-,N/A,,Clear,0,2013-01-12 03:51:00
10:55 PM,63.5,63.5,100,30.19,9.0,Calm,Calm,-,N/A,,Clear,0,2013-01-12 03:55:00
11:21 PM,64.4,64.4,100,30.19,7.0,Calm,Calm,-,N/A,,Clear,0,2013-01-12 04:21:00
11:35 PM,62.6,62.6,100,30.19,2.5,South,3.5,-,N/A,,Clear,190,2013-01-12 04:35:00
11:37 PM,62.6,62.6,100,30.19,2.5,Calm,Calm,-,N/A,,Clear,0,2013-01-12 04:37:00
11:42 PM,62.6,62.6,100,30.19,3.0,Calm,Calm,-,N/A,,Clear,0,2013-01-12 04:42:00
11:53 PM,62.6,62.6,100,30.19,2.5,Calm,Calm,-,N/A,,Clear,0,2013-01-12 04:53:00
11:55 PM,63.0,63.0,100,30.19,2.5,Calm,Calm,-,N/A,,Clear,0,2013-01-12 04:55:00